Regional Weather Roundup
Issued by NWS

Home | Current Version | Previous Version | Graphics & Text | Print | Product List | Glossary On
Versions: 1 2 3 4 5 6 7 8 9 10 11 12 13 14 15 16 17 18 19 20 21 22 23 24 25 26 27 28 29 30 31 32 33 34 35 36 37 38 39 40 41 42 43 44 45 46 47 48 49 50
000
ASUS43 KOAX 301410
RWRNE

WEATHER ROUNDUP FOR NEBRASKA
NATIONAL WEATHER SERVICE OMAHA NE
900 AM CDT TUE JUN 30 2015

NOTES: SATELLITE DATA IS BEING USED TO AUGMENT CLOUD COVER ABOVE
       12000 FEET.
       "FAIR" INDICATES FEW OR NO CLOUDS BELOW 12,000 FEET WITH NO
       SIGNIFICANT WEATHER AND/OR OBSTRUCTIONS TO VISIBILITY.

  * THESE STATIONS DO NOT REPORT WEATHER SUCH AS RAIN...SNOW OR FOG.

NEZ001>004-019>022-054>056-301500-
NEBRASKA PANHANDLE

CITY           SKY/WX    TMP DP  RH WIND       PRES   REMARKS
SCOTTSBLUFF    MOSUNNY   67  55  65 W7        30.07S
ALLIANCE       MOSUNNY   67  59  75 W3        30.04F
CHADRON        PTSUNNY   69  61  75 SW6       29.99F
KIMBALL          N/A    N/A N/A N/A MISG        N/A
SIDNEY         SUNNY     71  56  58 W5        30.09F
$$

NEZ057>060-069>072-079>082-301500-
SOUTHWEST NEBRASKA

CITY           SKY/WX    TMP DP  RH WIND       PRES   REMARKS
NORTH PLATTE   MOSUNNY   72  63  73 CALM      30.01S
IMPERIAL       SUNNY     73  58  59 NW3       30.04F
LEXINGTON      PTSUNNY   74  64  69 CALM      29.99F
MCCOOK         PTSUNNY   73  59  61 SW6       30.01S
OGALLALA       SUNNY     70  62  74 W5        30.03F
$$

NEZ005>010-023>029-035>040-094-301500-
NORTH CENTRAL NEBRASKA

CITY           SKY/WX    TMP DP  RH WIND       PRES   REMARKS
VALENTINE      SUNNY     74  61  63 E9        29.97R
AINSWORTH      MOSUNNY   74  61  64 E8        29.99S
BROKEN BOW     PTSUNNY   77  65  66 CALM      29.98F
O`NEILL        CLOUDY    71  64  78 SE7       29.97F
ORD            MOSUNNY   73  63  70 NE5       29.96S
THEDFORD       SUNNY     76  64  64 SW3       30.00F
$$

NEZ041-046>049-061>064-073>077-083>087-301500-
SOUTH CENTRAL NEBRASKA

CITY           SKY/WX    TMP DP  RH WIND       PRES   REMARKS
GRAND ISLAND   SUNNY     78  62  57 SW8       29.97S
AURORA         SUNNY     77  64  63 W8        29.97S
HASTINGS       SUNNY     78  63  59 SW7       29.98S
HEBRON         SUNNY     74  63  68 CALM      29.96F
HOLDREGE       PTSUNNY   75  59  56 SW9       30.00S
KEARNEY *      MOSUNNY   77  63  61 SW9       29.98F
YORK           SUNNY     73  64  73 W3        29.97S
$$

NEZ011>018-030>034-042>045-301500-
NORTHEAST NEBRASKA

CITY           SKY/WX    TMP DP  RH WIND       PRES   REMARKS
NORFOLK        CLOUDY    73  65  75 E5        29.97S HAZE
ALBION         CLOUDY    71  62  73 CALM      29.98F HAZE
BLAIR          PTSUNNY   72  61  69 NW6       29.96F
COLUMBUS *     CLOUDY    70  63  78 SE3       29.97F
FREMONT        CLOUDY    71  63  76 CALM      29.98S HAZE
TEKAMAH        CLOUDY    73  64  73 W8        29.95F HAZE
WAYNE          CLOUDY    68  66  94 S5        29.97F FOG
$$

NEZ050>053-065>068-078-088>093-301500-
SOUTHEAST NEBRASKA

CITY           SKY/WX    TMP DP  RH WIND       PRES   REMARKS
LINCOLN        PTSUNNY   75  65  70 N5        29.98R HAZE
OMAHA EPPLEY   CLOUDY    73  64  73 CALM      29.95S HAZE
BEATRICE       SUNNY     74  64  70 W3        29.96S
FALLS CITY     MOSUNNY   73  66  78 NW5       29.95R
NEBRASKA CITY  MOSUNNY   76  60  56 N3        29.96S
PLATTSMOUTH    MOSUNNY   73  63  70 NW12      29.97R
$$

NEZ044-045-051>053-067-301500-
OMAHA AREA

CITY           SKY/WX    TMP DP  RH WIND       PRES   REMARKS
OMAHA EPPLEY   CLOUDY    73  64  73 CALM      29.95S HAZE
BLAIR          PTSUNNY   72  61  69 NW6       29.96F
FREMONT        CLOUDY    71  63  76 CALM      29.98S HAZE
MILLARD        PTSUNNY   73  65  75 W5        29.95F
PLATTSMOUTH    MOSUNNY   73  63  70 NW12      29.97R
WAHOO          CLOUDY    70  65  83 CALM      29.96F
$$


USA.gov is the U.S. government's official web portal to all federal, state and local government web resources and services.